Regional Weather Roundup
Issued by NWS

Home | Current Version | Previous Version | Text Only | Print | Product List | Glossary Off
Versions: 1 2 3 4 5 6 7 8 9 10 11 12 13 14 15 16 17 18 19 20 21 22 23 24 25 26 27 28 29 30 31 32 33 34 35 36 37 38 39 40 41 42 43 44 45 46 47 48 49 50

000
ASUS43 KBIS 202220
RWRND

NORTH DAKOTA REGIONAL WEATHER ROUNDUP
NATIONAL WEATHER SERVICE BISMARCK ND
400 PM CST THU NOV 20 2014

NOTE: "FAIR" INDICATES FEW OR NO CLOUDS BELOW 12,000 FEET WITH NO
SIGNIFICANT WEATHER AND/OR OBSTRUCTIONS TO VISIBILITY.


NDZ001>003-009>011-017-202300-
NORTHWEST NORTH DAKOTA

CITY           SKY/WX    TMP DP  RH WIND       PRES   REMARKS
WILLISTON      PTCLDY    22  13  68 S9        29.89F WCI  12
MINOT          CLEAR     21   8  57 S15       29.95F WCI   8
MINOT AFB      CLEAR     21  11  63 S12       29.94F WCI  10
$$

NDZ018>021-031>035-040>046-202300-
SOUTHWEST NORTH DAKOTA

CITY           SKY/WX    TMP DP  RH WIND       PRES   REMARKS
BISMARCK       CLEAR     21  10  62 S13       30.03F WCI   9
DICKINSON      CLEAR     23  18  81 S15       29.87F WCI  10
GARRISON         N/A     20  11  68 S13       29.96F WCI   7
HETTINGER ARPT CLEAR     27  20  75 SE12      29.92F WCI  17
$$

NDZ004>008-012>016-024-026-027-054-202300-
NORTHEAST NORTH DAKOTA

CITY           SKY/WX    TMP DP  RH WIND       PRES   REMARKS
GRAND FORKS    PTCLDY    19   3  49 SW6       30.12S WCI  11
GRND FRKS AFB  CLEAR     20   2  45 SW5       30.11S WCI  14
DEVILS LAKE    CLEAR     18   3  53 S9        30.02F WCI   6
$$

NDZ022-023-025-028>030-036>039-047>053-202300-
SOUTHEAST NORTH DAKOTA

CITY           SKY/WX    TMP DP  RH WIND       PRES   REMARKS
FARGO          CLEAR     21   2  43 SW3       30.14F
JAMESTOWN      CLEAR     20   7  57 SW9       30.07S WCI   9
$$



USA.gov is the U.S. government's official web portal to all federal, state and local government web resources and services.